C/2020 H8 ( PanSTARRS )

Japanese version
Home page
Updated on October 9, 2020

---------------------------------------------------------------------

* Profile

Discovery Date April 30, 2020
Magnitude 20.7 mag
Discoverer R. Wainscoat (Pan-STARRS2 1.8-m Ritchey-Chretien reflector at Haleakala)

* Pictures

* Orbital Elements

Epoch 2020 May 31.0 TT = JDT 2459000.5
T 2020 June 4.18365 TT                                  Rudenko
q   4.6745012            (2000.0)            P               Q
z  +0.0016432      Peri.  128.89387     -0.10979792     -0.38426053
 +/-0.0000091      Node    68.40682     -0.88489344     -0.38222130
e   0.9923190      Incl.   99.64672     +0.45266766     -0.84038725
From 181 observations 2020 Apr. 30-Sept. 8, mean residual 0".4.

* Magnitudes Graph

        m1 = 10.0 + 5 log d + 10.0 log r

---------------------------------------------------------------------

The orbital elements are published on M.P.E.C. 2020-S188.
The magnitudes graphs are made with Comet for Windows.

---------------------------------------------------------------------

Copyright(C) Seiichi Yoshida (comet@aerith.net). All rights reserved.